星链-34153 (STARLINK-34153)

导读 | 豆包AI

STARLINK-34153是美国SpaceX公司星链(Starlink)星座的一员,于2025年5月13日发射入轨。作为低轨通信卫星,它运行在近地轨道,依托星链全球星座部署,旨在提供覆盖全球的高速宽带互联网接入服务,支持偏远地区网络连接,同时具备自主避撞能力,寿命末期会主动离轨坠入大气层烧毁,减少太空垃圾影响。

Basic Information
目录编号:
63967
目录名称:
STARLINK-34153
国际标识:
2025-099R
轨道中心:
EARTH
卫星名称:
星链-34153
卫星全名:
星链-34153 (STARLINK-34153)
卫星状态:
在轨 (已飞行305 天)
发射日期:
2025-05-13 UTC
国别 :
美国 (US)
星等 :
--
Orbit Information
数据来源 国际轨道数据 AOE轨道数据
星历时间 2026-03-14T22:48:47+0800
5小时前
查看轨道信息
2026-03-11T08:00:00+0800
3天前
查看轨道信息
半长轴 6861.105km 6861.025km
偏心率 0.0001384 0.0002459
轨道倾角 43.000° 43.004°
近地点辐角 274.164° 296.966°
升交点赤经 148.062° 168.498°
平近点角 85.905° 307.765°
近地点 482.018km 481.2km
远地点 483.918km 484.576km
周期 94.265分钟 94.263分钟
每日圈数 15.276072 15.276339
Detailed Information
固有亮度:
5
最大亮度:
2.5
卫星平台:
Starlink V1.0
覆盖范围:
全球
运营商:
太空探索技术公司
运营商所在国:
美国
制造商(研发单位):
太空探索技术公司
制造商所在国:
美国
使用方式:
暂无
Satellite Introduction
Starlink 计划是 SpaceX 推出的全球卫星互联网项目,通过发射低轨道卫星,为全球尤其是偏远地区提供高速、低延迟的互联网服务。自 2019 年起,Starlink 已部署数千颗卫星,旨在缩小全球数字鸿沟,推动互联网普及。该项目还为军事、航空等行业提供通信支持,带来广泛经济效益。
2D Orbit Map
3D Orbit Map
Orbit Altitude Analysis Chart
Orbit Inclination Analysis Chart
Orbit Comprehensive Analysis Chart
View Comprehensive Chart